Total_Precipitation_Accumulation
0.14 0.15 0.21 0.30 0.25 0.17 0.07 0.02 0.01 0.01 0.01 0.02 0.03 0.04 0.04 0.03 0.03 0.08 0.05 0.05 0.06 0.07 0.12 0.24 0.35 0.44 0.44 0.41 0.33 0.24 0.19 0.18 0.20 0.23 0.22 0.22 0.20 0.20 0.21 0.22 0.24 0.27 0.28 0.29 0.34 0.34 0.34 0.31 0.24
0.16 0.24 0.40 0.44 0.30 0.19 0.07 0.02 0.01 0.00 0.01 0.02 0.02 0.03 0.04 0.05 0.05 0.06 0.07 0.06 0.07 0.10 0.15 0.23 0.33 0.43 0.47 0.46 0.39 0.33 0.31 0.28 0.27 0.29 0.29 0.29 0.26 0.25 0.25 0.25 0.24 0.24 0.23 0.24 0.25 0.21 0.17 0.13 0.11
0.27 0.40 0.56 0.50 0.34 0.18 0.07 0.02 0.01 0.01 0.01 0.03 0.03 0.04 0.05 0.08 0.07 0.07 0.08 0.09 0.13 0.16 0.20 0.30 0.38 0.43 0.47 0.47 0.46 0.42 0.39 0.38 0.37 0.37 0.36 0.37 0.34 0.30 0.28 0.26 0.23 0.20 0.17 0.16 0.16 0.12 0.08 0.05 0.04
0.46 0.62 0.64 0.52 0.34 0.15 0.06 0.03 0.02 0.02 0.03 0.02 0.04 0.07 0.09 0.10 0.12 0.11 0.12 0.14 0.18 0.22 0.25 0.36 0.44 0.47 0.46 0.47 0.45 0.45 0.43 0.43 0.43 0.38 0.37 0.42 0.44 0.41 0.32 0.26 0.21 0.16 0.13 0.11 0.10 0.07 0.06 0.04 0.03
0.70 0.82 0.69 0.54 0.32 0.13 0.06 0.04 0.03 0.03 0.04 0.04 0.06 0.10 0.13 0.14 0.16 0.21 0.24 0.24 0.25 0.28 0.31 0.41 0.56 0.61 0.59 0.58 0.54 0.49 0.47 0.45 0.45 0.41 0.39 0.42 0.46 0.46 0.37 0.26 0.19 0.13 0.11 0.10 0.08 0.05 0.05 0.04 0.04
0.92 0.95 0.75 0.50 0.27 0.12 0.05 0.05 0.05 0.05 0.06 0.07 0.10 0.15 0.22 0.21 0.24 0.28 0.37 0.38 0.37 0.37 0.41 0.52 0.68 0.73 0.72 0.69 0.64 0.60 0.57 0.53 0.49 0.47 0.48 0.47 0.48 0.48 0.38 0.26 0.20 0.17 0.14 0.12 0.09 0.06 0.05 0.04 0.04
0.92 0.95 0.74 0.38 0.22 0.15 0.07 0.07 0.08 0.08 0.07 0.10 0.13 0.23 0.32 0.35 0.43 0.42 0.49 0.55 0.56 0.54 0.57 0.66 0.73 0.79 0.85 0.78 0.69 0.65 0.63 0.62 0.57 0.54 0.55 0.52 0.49 0.46 0.35 0.24 0.20 0.20 0.18 0.15 0.12 0.10 0.09 0.07 0.05
0.90 1.01 0.72 0.36 0.19 0.16 0.11 0.11 0.12 0.12 0.11 0.10 0.18 0.29 0.36 0.42 0.56 0.66 0.71 0.77 0.79 0.76 0.71 0.72 0.76 0.79 0.88 0.87 0.76 0.65 0.60 0.59 0.61 0.60 0.53 0.45 0.42 0.43 0.38 0.23 0.20 0.20 0.19 0.16 0.14 0.11 0.10 0.09 0.06
0.92 1.02 0.68 0.36 0.21 0.17 0.18 0.20 0.17 0.14 0.18 0.20 0.25 0.31 0.37 0.49 0.72 0.91 0.99 1.00 1.07 1.06 0.94 0.84 0.84 0.81 0.85 0.90 0.82 0.75 0.66 0.61 0.60 0.60 0.50 0.42 0.43 0.40 0.35 0.23 0.15 0.17 0.17 0.15 0.15 0.14 0.11 0.09 0.06
0.93 0.83 0.50 0.30 0.24 0.25 0.24 0.25 0.24 0.25 0.29 0.34 0.40 0.44 0.54 0.73 1.02 1.14 1.15 1.14 1.19 1.22 1.15 1.00 0.91 0.89 0.92 0.92 0.92 0.88 0.77 0.68 0.61 0.55 0.57 0.49 0.45 0.44 0.37 0.30 0.18 0.16 0.16 0.15 0.16 0.15 0.15 0.10 0.05
0.63 0.57 0.43 0.35 0.31 0.32 0.32 0.29 0.28 0.32 0.35 0.36 0.41 0.54 0.75 0.99 1.28 1.35 1.40 1.41 1.39 1.40 1.37 1.22 1.06 1.02 1.00 0.94 0.90 0.92 0.82 0.74 0.67 0.60 0.58 0.59 0.53 0.46 0.45 0.38 0.29 0.23 0.16 0.15 0.15 0.15 0.13 0.10 0.06
0.43 0.39 0.41 0.41 0.35 0.35 0.37 0.36 0.35 0.32 0.33 0.34 0.41 0.54 0.80 1.08 1.28 1.37 1.50 1.58 1.65 1.66 1.65 1.46 1.28 1.15 1.09 1.02 0.89 0.84 0.81 0.75 0.67 0.60 0.62 0.62 0.57 0.46 0.39 0.35 0.30 0.26 0.19 0.16 0.15 0.13 0.12 0.09 0.07
0.35 0.32 0.35 0.42 0.42 0.37 0.36 0.37 0.40 0.32 0.32 0.36 0.43 0.61 0.83 1.14 1.38 1.54 1.69 1.73 1.86 1.93 1.92 1.83 1.56 1.31 1.17 1.11 1.02 0.88 0.77 0.69 0.68 0.64 0.60 0.56 0.51 0.44 0.38 0.34 0.34 0.30 0.23 0.17 0.15 0.15 0.12 0.10 0.08
0.31 0.30 0.37 0.44 0.48 0.40 0.40 0.40 0.41 0.35 0.32 0.42 0.50 0.64 0.80 1.12 1.49 1.68 1.86 1.96 1.92 2.09 2.19 2.20 1.90 1.57 1.31 1.18 1.08 0.96 0.78 0.70 0.70 0.70 0.63 0.58 0.50 0.44 0.39 0.33 0.32 0.30 0.28 0.23 0.18 0.16 0.15 0.14 0.11
0.36 0.45 0.49 0.50 0.53 0.44 0.47 0.55 0.45 0.37 0.34 0.41 0.48 0.61 0.76 1.05 1.42 1.68 1.85 1.96 2.05 2.16 2.34 2.42 2.27 1.95 1.53 1.30 1.16 1.06 0.92 0.80 0.72 0.68 0.67 0.65 0.60 0.53 0.47 0.39 0.34 0.30 0.30 0.30 0.26 0.23 0.21 0.18 0.15
0.58 0.71 0.68 0.48 0.51 0.50 0.56 0.62 0.43 0.38 0.37 0.38 0.44 0.57 0.72 0.90 1.22 1.51 1.80 1.91 2.05 2.21 2.34 2.42 2.41 2.25 1.86 1.46 1.28 1.16 1.07 0.97 0.84 0.79 0.78 0.73 0.68 0.62 0.60 0.49 0.38 0.35 0.38 0.37 0.31 0.26 0.25 0.20 0.17
0.81 0.67 0.54 0.41 0.41 0.50 0.50 0.54 0.44 0.38 0.36 0.35 0.37 0.47 0.69 0.84 1.03 1.25 1.58 1.81 1.88 2.08 2.27 2.50 2.46 2.34 2.14 1.84 1.57 1.42 1.26 1.15 1.02 0.88 0.83 0.87 0.85 0.79 0.73 0.59 0.48 0.43 0.42 0.40 0.39 0.34 0.30 0.24 0.18
0.58 0.37 0.34 0.37 0.38 0.42 0.39 0.34 0.37 0.40 0.40 0.36 0.39 0.44 0.60 0.78 0.84 1.01 1.28 1.63 1.75 1.93 2.16 2.34 2.59 2.54 2.51 2.41 2.09 1.75 1.55 1.34 1.21 1.05 0.91 0.91 0.93 0.92 0.90 0.79 0.66 0.61 0.54 0.47 0.43 0.41 0.39 0.35 0.30
0.44 0.35 0.28 0.25 0.30 0.37 0.34 0.29 0.32 0.33 0.38 0.37 0.38 0.43 0.47 0.61 0.72 0.88 1.13 1.45 1.66 1.77 1.99 2.11 2.32 2.52 2.57 2.47 2.16 1.80 1.57 1.49 1.45 1.31 1.17 1.09 1.03 0.99 0.96 0.93 0.85 0.75 0.65 0.57 0.53 0.50 0.47 0.44 0.44
0.58 0.51 0.36 0.25 0.23 0.33 0.34 0.31 0.30 0.32 0.38 0.36 0.37 0.39 0.41 0.47 0.55 0.70 0.99 1.19 1.37 1.54 1.69 1.93 2.00 2.25 2.32 2.25 2.21 2.03 1.92 1.80 1.70 1.60 1.41 1.28 1.22 1.12 1.02 0.96 0.94 0.85 0.77 0.73 0.73 0.69 0.64 0.58 0.56
0.63 0.52 0.42 0.34 0.29 0.35 0.39 0.36 0.30 0.30 0.31 0.28 0.28 0.30 0.36 0.41 0.45 0.57 0.78 0.99 1.10 1.28 1.55 1.67 1.73 1.97 2.19 2.27 2.40 2.47 2.41 2.11 1.84 1.68 1.59 1.47 1.41 1.31 1.18 1.06 1.04 1.01 0.89 0.81 0.83 0.86 0.85 0.85 0.82
0.64 0.39 0.43 0.45 0.53 0.50 0.38 0.46 0.33 0.26 0.25 0.25 0.27 0.25 0.29 0.37 0.40 0.47 0.54 0.71 0.84 0.96 1.27 1.61 1.75 1.88 2.08 2.35 2.36 2.30 2.16 1.94 1.68 1.67 1.72 1.70 1.60 1.49 1.35 1.25 1.18 1.15 1.09 0.99 1.00 1.02 1.05 1.09 1.07
0.58 0.40 0.47 0.55 0.64 0.61 0.37 0.38 0.32 0.21 0.23 0.25 0.28 0.27 0.32 0.42 0.45 0.44 0.46 0.58 0.70 0.80 1.01 1.29 1.58 1.82 2.02 2.15 2.20 2.25 2.11 1.93 1.87 1.79 1.76 1.67 1.58 1.53 1.45 1.39 1.35 1.30 1.27 1.25 1.27 1.24 1.21 1.19 1.17
0.65 0.66 0.71 0.75 0.92 0.87 0.36 0.33 0.30 0.24 0.27 0.28 0.28 0.29 0.35 0.42 0.47 0.44 0.44 0.53 0.65 0.71 0.84 1.02 1.28 1.48 1.69 1.89 1.99 2.05 2.05 2.04 1.99 1.82 1.72 1.71 1.69 1.63 1.53 1.51 1.50 1.49 1.47 1.43 1.40 1.40 1.41 1.39 1.33
0.96 1.29 1.65 1.55 1.28 0.67 0.24 0.27 0.26 0.22 0.29 0.33 0.33 0.35 0.37 0.37 0.39 0.39 0.43 0.49 0.59 0.66 0.75 0.84 0.95 1.08 1.26 1.45 1.60 1.70 1.82 1.92 1.84 1.74 1.62 1.61 1.59 1.54 1.50 1.47 1.51 1.55 1.53 1.54 1.55 1.53 1.48 1.49 1.50
0.94 1.10 1.29 1.05 0.64 0.33 0.19 0.22 0.22 0.23 0.32 0.36 0.35 0.35 0.33 0.37 0.39 0.37 0.37 0.42 0.51 0.57 0.64 0.71 0.77 0.85 1.00 1.14 1.26 1.41 1.56 1.74 1.73 1.71 1.56 1.44 1.40 1.40 1.48 1.43 1.36 1.38 1.43 1.47 1.48 1.49 1.45 1.45 1.43
0.85 0.83 0.72 0.90 0.59 0.34 0.19 0.14 0.14 0.17 0.23 0.30 0.31 0.29 0.29 0.37 0.40 0.37 0.36 0.38 0.45 0.49 0.54 0.63 0.73 0.78 0.85 0.97 1.10 1.22 1.31 1.42 1.49 1.57 1.59 1.44 1.37 1.36 1.38 1.33 1.26 1.19 1.18 1.25 1.33 1.34 1.34 1.35 1.35
0.70 0.66 0.83 1.16 0.91 0.49 0.20 0.12 0.17 0.19 0.20 0.27 0.30 0.32 0.35 0.39 0.39 0.36 0.38 0.41 0.46 0.47 0.48 0.56 0.71 0.74 0.74 0.81 0.91 1.00 1.10 1.25 1.34 1.38 1.39 1.35 1.31 1.31 1.30 1.24 1.15 1.09 1.06 1.05 1.11 1.12 1.12 1.17 1.17
0.64 0.79 0.92 0.93 0.70 0.60 0.38 0.24 0.23 0.23 0.21 0.25 0.30 0.33 0.36 0.40 0.40 0.40 0.44 0.50 0.53 0.48 0.50 0.55 0.62 0.73 0.77 0.77 0.82 0.86 0.87 0.95 1.10 1.22 1.24 1.26 1.23 1.21 1.20 1.17 1.12 1.06 0.99 0.94 0.93 0.90 0.94 1.01 1.02
0.50 0.50 0.68 0.99 0.72 0.51 0.45 0.34 0.24 0.24 0.21 0.22 0.27 0.31 0.33 0.35 0.37 0.42 0.49 0.51 0.52 0.54 0.56 0.60 0.62 0.67 0.77 0.78 0.79 0.83 0.84 0.85 0.93 1.02 1.13 1.20 1.27 1.20 1.16 1.12 1.07 1.02 0.97 0.92 0.90 0.85 0.84 0.87 0.91